Tracking 35331 objects as of 16-Sep-2026
HD Live streaming from Space Station
objects crossing your sky now

COSMOS 885 DEB


COSMOS 885 DEB is no longer on orbit


NORAD ID: 9897
Int'l Code: 1976-124D
Launch date: December 17, 1976
Source: Commonwealth of Independent States (former USSR) (CIS)
Launch site: PLESETSK MISSILE AND SPACE COMPLEX (PKMTR)
Decay date: 1977-11-22

Note: This is SATELLITE DEBRIS
Your satellite tracking list
Your tracking list is empty




NASA's NSSDC Master Catalog

Two Line Element Set (TLE):
1 09897U 76124  D 77308.06125435  .00777164 +00000-0 +00000-0 0  9996
2 09897 065.8199 301.8553 0000000 058.1447 023.5202 15.76011638049338
Source of the keplerian elements: AFSPC